Location: Grand Lay
(47.3253°N, 0.9468°E)
Time: 23:18:34
(UTC+00:00)

USA 32 - Visible Passes

Search period start: 18 April 2026 00:00
Search period end: 28 April 2026 00:00
Orbit: 776 x 778 km, 85.0° (Epoch: 18 April)

Date Brightness Start Highest point End Pass type
(mag) Time Alt. Az. Time Alt. Az. Time Alt. Az.
18 Apr 5.0 19:16:54 10° SE 19:21:18 28° E 19:25:43 10° NNE visible
18 Apr 5.3 20:57:07 10° SSW 21:02:00 40° WNW 21:06:57 10° N visible
19 Apr 4.3 20:22:53 10° SSW 20:28:05 69° W 20:33:20 10° N visible
19 Apr 7.1 22:09:26 10° WNW 22:10:02 10° WNW 22:10:37 10° NW visible
20 Apr 4.0 19:49:07 10° S 19:54:17 70° E 19:59:31 10° N visible
20 Apr 6.7 21:32:18 10° WSW 21:35:45 18° WNW 21:39:13 10° NNW visible
21 Apr 6.0 20:57:06 10° SW 21:01:37 29° WNW 21:06:08 10° NNW visible
22 Apr 5.0 20:22:34 10° SSW 20:27:36 48° W 20:32:41 10° N visible
23 Apr 4.1 19:48:30 10° S 19:53:43 83° W 19:59:00 10° N visible
23 Apr 7.0 21:33:21 10° W 21:35:30 12° WNW 21:37:39 10° NW visible
24 Apr 6.6 20:57:23 10° WSW 21:01:16 21° WNW 21:05:11 10° NNW visible
25 Apr 5.8 20:22:27 10° SW 20:27:10 34° WNW 20:31:57 10° N visible
26 Apr 4.8 19:48:04 10° SSW 19:53:13 58° W 19:58:24 10° N visible
27 Apr 7.0 20:58:04 10° W 21:00:59 15° WNW 21:03:55 10° NNW visible
